Location: Doschendorf
(50.0069°N, 11.0602°E)
Time: 04:54:31
(UTC+00:00)

USA 215 - Pass Details

Date: 17 November 2019
Orbit: 1101 x 1107 km, 123.0° (Epoch: 02 December)

Event Time Altitude Azimuth Distance (km) Brightness Sun altitude
Exits shadow 16:27:25 11° 79° (E) 2,897 4.8 -9.3°
Maximum altitude 16:33:29 50° 7° (N) 1,377 3.6 -10.2°
Drops below altitude 10° 16:39:44 10° 295° (WNW) 2,964 6.3 -11.2°
Sets 16:42:17 0° 290° (WNW) 3,922 7.1 -11.6°
